Location: Street
(51.1247°N, 2.7429°W)
Time: 14:52:43
(UTC+00:00)

SR - Pass Details

Date: 29 November 2020
Orbit: 575 x 880 km, 66.7° (Epoch: 25 January)

Event Time Altitude Azimuth Distance (km) Brightness Sun altitude
Rises 03:15:20 0° 320° (NW) 3,157 - -42.0°
Reaches altitude 10° 03:17:39 10° 317° (NW) 2,279 - -41.6°
Maximum altitude 03:22:48 60° 238° (WSW) 908 - -40.9°
Drops below altitude 10° 03:28:22 10° 160° (SSE) 2,448 - -40.0°
Sets 03:30:55 0° 157° (SSE) 3,411 - -39.6°
